www.pogodaiklimat.ru

Архив погоды в Йелимане (Мали)

Время
(UTC), дата
03 19.05
12 19.05
18 19.05
21 19.05
00 20.05
03 20.05
06 20.05
09 20.05
12 20.05
15 20.05
18 20.05
21 20.05
00 21.05
03 21.05
06 21.05
12 21.05
15 21.05
18 21.05
21 21.05
06 22.05
09 22.05
12 22.05
15 22.05
18 22.05
21 22.05
00 23.05
03 23.05
06 23.05
09 23.05
12 23.05
15 23.05
18 23.05
21 23.05
00 24.05
03 24.05
06 24.05
09 24.05
12 24.05
15 24.05
18 24.05
21 24.05
00 25.05
03 25.05
06 25.05
09 25.05
12 25.05
15 25.05
18 25.05
21 25.05
00 26.05
Ветер
(напр.,м/с)
Видим. Явления Облачность Т
(С)
Тd
(С)
f
(%)
Тe
(С)
Тes
(С)
Комфортность P
(гПа)
Po
(гПа)
Тmin
(С)
Tmax
(С)
R
(мм)
R24
(мм)
S
(см)
В 5 10 км 9/0
[Ac As]
+39.0 +4.5 12 +36 +36 очень жарко 1006.1 995.1
З 3 10 км 6/0
[Ac trans Ci fib]
+41.5 +17.3 25 +44 +55 опасность перегрева 1008.2 997.1
З 4 10 км 10/0
[Ac As]
+41.5 +16.2 23 +43 +44 опасность перегрева 1005.9 994.8 +44.3
С 4 10 км слаб. дождь 9/3 1000 м
[Cb cap Ac trans]
+36.2 +17.7 34 +40 +40 очень душно 1008.4 997.2
С 4 10 км {дождь} 8/0
[Ac trans Ci fib]
+36.8 +12.8 24 +37 +37 очень жарко 1008.6 997.5 0.1
С 1 10 км 8/0
[Ac trans Ci fib]
+34.3 +16.4 34 +37 +37 очень душно 1006.7 995.6
В 2 10 км 9/6 1000 м
[Sc Ac trans Ci fib]
+31.4 +17.7 44 +36 +36 очень душно 1007.3 996.1 +31.0 0.1
ЮЗ 3 10 км ясно +37.5 +13.5 24 +38 +44 очень жарко 1008.9 997.7
ЮВ 2 10 км ясно +42.3 +13.5 19 +43 +64 опасность перегрева 1008.1 997.0
СВ 3 10 км 1/0
[Ac trans]
+45.8 +9.6 12 +44 +56 опасность перегрева 1005.2 994.2
СВ 5 10 км 3/0
[Ac trans]
+45.2 +8.6 12 +43 +44 опасность перегрева 1004.4 993.3 +46.3
С 4 10 км 5/0
[Ac trans Ci fib]
+41.6 +8.4 14 +40 +40 очень жарко 1006.3 995.2
С 8 10 км ясно +39.5 +7.4 14 +37 +37 очень жарко 1007.2 996.2
С 7 10 км 3/0
[Ci fib]
+37.0 +7.9 17 +35 +35 очень жарко 1006.1 995.1
СВ 6 10 км 3/0
[Ac As]
+35.9 +6.3 16 +33 +33 жарко 1007.5 996.5 +35.7
В 3 10 км 3/0
[Ci fib]
+43.3 +7.5 12 +41 +57 опасность перегрева 1009.4 998.4
СВ 5 6000 м пыль 6/0
[Ci fib]
+46.4 +11.5 13 +45 +52 опасность перегрева 1005.9 994.9
СВ 4 6000 м пыль 4/0
[Ac trans Ci fib]
+45.2 +6.1 10 +43 +43 опасность перегрева 1005.2 994.2 +46.9
В 5 6000 м пыль 4/0
[Ac trans Ci fib]
+42.9 +7.0 12 +41 +41 опасность перегрева 1006.7 995.7
СВ 6 8000 м пыль 3/0
[Ac trans Ci fib]
+38.0 +5.8 14 +35 +35 очень жарко 1007.8 996.8 +37.4
ЮВ 5 9000 м пыль 3/0
[Ci fib]
+39.0 +15.8 26 +41 +45 опасность перегрева 1009.7 998.6
ЮЗ 4 9000 м пыль 1/0
[Ci fib]
+41.0 +16.7 24 +43 +57 опасность перегрева 1009.5 998.4
ЮЗ 3 9000 м пыль 4/3 1200 м
[Cu med, cong Ac trans Ci fib]
+43.2 +15.8 20 +44 +53 опасность перегрева 1006.9 995.9
З 3 9000 м пыль 4/4 1200 м
[Cu med, cong Ci fib]
+43.0 +15.4 20 +44 +45 опасность перегрева 1005.8 994.8 +45.4
ЮЗ 2 9000 м в посл. час гроза 6/0
[Ac trans Ci fib]
+40.2 +16.2 25 +42 +42 опасность перегрева 1007.6 996.5
штиль 0 9000 м пыль {гроза} 3/0
[Ci fib]
+36.3 +18.6 35 +40 +40 очень душно 1008.8 997.7
Ю 2 9000 м пыль 1/0 <50 м
[Ci fib]
+35.0 +19.9 41 +41 +41 очень душно 1007.1 996.0
Ю 2 9000 м пыль 3/0
[Ac trans Ci fib]
+35.0 +16.4 33 +38 +38 очень душно 1007.6 996.5 +34.9
З 5 9000 м пыль 4/0
[Ci fib]
+36.9 +16.2 29 +39 +43 очень душно 1009.6 998.5
З 3 9000 м пыль 3/0
[Ci fib]
+40.7 +16.9 25 +43 +59 опасность перегрева 1008.6 997.5
ЮЗ 2 9000 м пыль 5/0
[Ci fib]
+44.0 +14.2 18 +45 +58 опасность перегрева 1005.8 994.7
В 3 10 км 5/0
[Ci fib]
+43.8 +5.9 10 +41 +42 опасность перегрева 1005.3 994.2 +45.3
С 3 10 км 3/0
[Ci fib]
+39.4 +7.5 14 +37 +37 очень жарко 1006.7 995.6
СВ 2 10 км 1/0
[Ci fib]
+36.2 +6.6 16 +34 +34 очень жарко 1007.2 996.1
ЮЗ 3 10 км 1/0
[Ac trans Ci fib]
+33.6 +5.1 17 +31 +31 жарко 1006.5 995.4
С 2 10 км 4/0
[Ac trans Ci fib]
+31.8 +6.0 20 +30 +30 жарко 1008.0 996.9 +31.8
ЮЗ 5 8000 м пыль 3/0
[Ci fib]
+36.3 +15.5 29 +38 +42 очень душно 1009.9 998.7
Ю 1 8000 м пыль 3/0
[Ci fib]
+40.1 +14.4 22 +41 +64 опасность перегрева 1009.4 998.3
СВ 4 9000 м пыль 5/0
[Ci fib]
+45.4 +9.4 12 +42 +51 опасность перегрева 1006.3 995.2
СВ 4 9000 м пыль 6/3 900 м
[Cu med, cong Ac trans Ci fib]
+45.5 +4.6 9 +43 +43 опасность перегрева 1004.8 993.7 +46.2
СВ 5 9000 м пыль 5/0
[Ci fib]
+41.5 +3.8 10 +38 +38 очень жарко 1006.7 995.6
С 4 9000 м пыль 5/0
[Ci fib]
+37.5 +6.0 14 +35 +35 очень жарко 1007.8 996.7
С 6 9000 м пыль 4/0
[Ci fib]
+37.5 +3.5 12 +34 +34 очень жарко 1006.3 995.3
Ю 2 10 км 5/0
[Ac trans Ci fib]
+35.9 +7.9 18 +34 +34 очень жарко 1007.7 996.7 +35.4
З 2 10 км ясно +37.1 +6.4 15 +38 +46 душно 1010.3 999.2
СВ 4 10 км ясно +43.7 +3.6 9 +41 +55 опасность перегрева 1009.6 998.5
СВ 3 10 км ясно +45.3 +3.9 8 +42 +55 опасность перегрева 1006.8 995.8
СВ 5 10 км 3/0
[Ci fib]
+44.9 +2.8 8 +42 +42 опасность перегрева 1005.4 994.4 +46.2
СВ 3 10 км 4/0
[Ci fib]
+41.6 +4.9 11 +39 +39 очень жарко 1007.0 995.9
СВ 7 10 км 8/0
[Ac As]
+41.5 +2.5 9 +38 +38 очень жарко 1008.0 997.0
Местоположение метеостанции Йелимане (Мали): широта 15.12 долгота -10.56 высота над уровнем моря 100 м.
В архиве по умолчанию представлена погода в Йелимане за последнюю неделю. Архивные данные за месяц целиком и за предыдущие месяцы, начиная с января 2011 года, Вы можете получить, выбрав интересующий диапазон дат из раскрывающегося списка и нажав кнопку "Найти!".
*Определитесь, кто Вы:
Внимание! Время в таблицах - всемирное. Для получения местного времени необходимо прибавить поправку, которая равна 0 ч.
Некоторые строки с данными для отдельных станций могут быть выделены курсивом. Это означает, что фактические данные отсутствуют по различным причинам, а приведенные значения являются расчетными модельными данными для данного пункта наблюдений.
Смотрите также архив погоды в соседних городах и на ближайших метеорологических станциях:
Партнеры нашего сайта:      
Пояснения к столбцам:
  • Ветер - указаны скорость ветра в м/с - средняя за 10 мин, порывы в срок и между сроками (в фигурных скобках) и направление, откуда дует ветер: С - северный,
  • СВ - северо-восточный, В - восточный, ЮВ - юго-восточный, Ю - южный, ЮЗ - юго-западный, З - западный, СЗ - северо-западный.
  • Видимость - горизонтальная дальность видимости в метрах или километрах. При видимости от 1 до 10 км при отсутствии осадков обычно наблюдается дымка, при ухудшении видимости до 1 км и менее - туман. В сухую погоду видимость может ухудшаться дымом, пылью или мглою.
  • Явления - указаны атмосферные явления, наблюдавшиеся в срок или в последний час перед сроком; фигурными скобками обозначены явления, наблюдавшиеся между сроками (за 1-3 часа до срока); квадратными скобками обозначены град или гололедные отложения с указанием их диаметра в мм.
  • Облачность - указаны через наклонную черту общая и нижняя облачность в баллах и высота нижней границы облаков в метрах; квадратными скобками обозначены формы облаков: Ci - перистые, Cs - перисто-слоистые, Cc - перисто-кучевые, Ac - высококучевые, As - высокослоистые, Sc - слоисто-кучевые, Ns - слоисто-дождевые, Cu - кучевые, Cb - кучево-дождевые. Подробнее классификацию облаков см. в Атласе облаков (PDF).
  • T - Температура воздуха - температура, измеренная на высоте 2 м над землей.
  • Td - Температура точки росы - температура, при понижении до которой содержащийся в воздухе водяной пар достигнет насыщения.
  • f - Относительная влажность воздуха - влажноcть воздуха, измеренная на высоте 2 м над землей.
  • Te - Эффективная температура - температура, которую ощущает одетый по сезону человек в тени. Характеристика душности погоды. При расчете учитывается влияние влажности воздуха и скорости ветра на теплоощущения человека.
  • Tes - Эффективная температура на солнце - температура, которую ощущает человек, с поправкой на солнечный нагрев. Характеристика знойности погоды. Зависит от высоты солнца над горизонтом, облачности и скорости ветра. Ночью, в пасмурную погоду, а также при ветре 12 м/с и более поправка равна нулю.
  • P - Атмосферное давление - приведенное к уровню моря атмосферное давление.
  • Po - Атмосферное давление - измеренное на уровне метеостанции атмосферное давление.
  • Tmin - Минимальная температура - минимум температуры воздуха на высоте 2 м над землей.
  • Tmax - Максимальная температура - максимум температуры воздуха на высоте 2 м над землей.
  • R - Количество осадков - Количество выпавших осадков за период времени, мм. При наведении курсора мыши на число - период времени, за который выпало указанное количество осадков.
  • R24 - Количество осадков - Количество выпавших осадков за 24 часа, мм.
  • S - Снежный покров - Высота снежного покрова, см. При наведении курсора мыши на число - состояние снежного покрова и степень покрытия местности в баллах.